Location: Nairn
(57.5833°N, 3.8667°W)
Time: 02:01:13
(UTC+00:00)

Transit 2A - Pass Details

Date: 29 November 2020
Orbit: 598 x 960 km, 66.7° (Epoch: 20 January)

Event Time Altitude Azimuth Distance (km) Brightness Sun altitude
Rises 17:07:48 0° 186° (S) 3,622 9.9 -11.0°
Reaches altitude 10° 17:10:37 10° 178° (S) 2,660 9.1 -11.3°
Maximum altitude 17:16:03 33° 117° (ESE) 1,500 7.2 -12.0°
Enters shadow 17:19:49 17° 65° (ENE) 2,095 7.6 -12.5°
